#timestamp,LO_Frequency,Hit,StdDev 
1540623615.2,286046997.0,N
1540623635.0,286046998.7,N
1540623635.9,286046998.7,N
1540623655.7,286046997.7,N
1540623675.6,286046997.8,N
1540623695.4,286046996.8,N
1540623715.3,286046997.6,N
1540623735.1,286046995.5,Y
1540623736.0,286046995.5,P
1540623755.8,286046997.1,N
1540623775.7,286046997.2,N
1540623795.5,286046998.0,N
1540623815.3,286046997.5,N
1540623835.2,286046996.6,Y
1540623855.0,286047001.0,P
1540623855.9,286047001.0,N
1540623875.8,286047000.9,N
1540623895.6,286047000.7,N
1540623915.4,286046998.5,N
1540623935.3,286046998.5,N
1540623955.1,286046998.8,N
1540623975.9,286046999.1,N
1540623995.7,286046996.8,N
1540624015.5,286046997.1,N
1540624035.4,286046995.3,Y
1540624055.2,286046999.2,P
1540624075.0,286046998.7,P
1540624075.9,286046998.7,P
1540624095.8,286046998.1,Y
1540624115.6,286046998.3,P
1540624135.5,286047001.2,P
1540624155.3,286047001.0,N
1540624175.1,286046998.2,N
1540624195.9,286047000.8,N
1540624215.7,286047000.8,N
1540624235.5,286046998.9,N
1540624255.4,286046998.2,N
1540624275.2,286047001.1,N
1540624295.1,286047000.8,N
1540624296.0,286047000.8,N
1540624315.8,286046996.7,N
1540624335.6,286046996.6,N
1540624355.5,286046999.5,N
1540624375.3,286046999.3,N
1540624395.1,286046997.1,N
1540624415.9,286046997.8,N
1540624435.7,286046996.4,N
1540624455.6,286046993.8,Y
1540624475.4,286046998.0,P
1540624495.2,286046995.8,P
1540624515.1,286046995.7,P
1540624516.0,286046995.7,N
1540624535.8,286046993.6,Y
1540624555.7,286046997.7,P
1540624575.5,286046997.7,P
1540624595.3,286046997.3,P
1540624615.2,286046997.2,Y
1540624635.9,286046998.6,P
1540624655.7,286046996.5,P
1540624675.6,286046997.7,N
1540624695.4,286046997.2,Y
1540624715.3,286046998.1,P
1540624735.1,286047001.0,P
1540624736.0,286047001.0,N
1540624755.8,286047001.1,N
1540624775.7,286047001.2,N
1540624795.5,286047000.2,N
1540624815.3,286047002.1,N
1540624835.2,286047001.9,N
1540624855.0,286047002.1,N
1540624855.9,286047002.1,N
1540624875.8,286046999.9,N
1540624895.6,286047011.9,Y
1540624915.4,286047002.7,P
1540624935.3,286047002.6,N
1540624955.1,286047003.6,P
1540624975.8,286047003.2,N
1540624995.7,286047003.6,Y
1540625015.5,286046999.7,P
1540625035.4,286046998.9,N
1540625055.2,286046999.0,N
1540625075.0,286046998.7,N
1540625075.9,286046998.7,N
1540625095.8,286046998.3,N
1540625115.6,286047000.8,N
1540625135.5,286046999.2,N
1540625155.3,286046999.0,N
1540625175.1,286046998.7,N
1540625195.9,286046998.8,N
1540625215.7,286046998.3,N
1540625235.5,286046998.3,N
1540625255.4,286046996.7,N
1540625275.2,286046997.2,N
1540625295.0,286046997.2,N
1540625296.0,286046997.2,N
1540625315.8,286046997.1,N
1540625335.6,286046999.0,N
1540625355.5,286046999.2,N
1540625375.3,286046999.3,N
1540625395.1,286046998.2,N
1540625415.9,286046998.6,N
1540625435.7,286046998.2,N
1540625455.5,286046998.1,N
1540625475.4,286047001.0,N
1540625495.2,286047000.6,N
1540625515.1,286046998.6,N
1540625516.0,286046998.6,N
1540625535.8,286047000.3,N
1540625555.6,286046998.1,N
1540625575.5,286047000.1,N
1540625595.3,286046999.8,N
1540625615.1,286047002.6,N
1540625635.9,286047002.8,N
1540625655.7,286046998.4,N
1540625675.6,286046999.3,N
1540625695.4,286046998.8,N
1540625715.2,286046999.0,N
1540625735.1,286047001.2,N
1540625736.0,286047001.2,N
1540625755.8,286046998.2,N
1540625775.6,286047002.7,N
1540625795.5,286047000.1,N
1540625815.3,286047002.3,N
1540625835.2,286047001.9,N
1540625855.9,286047002.3,N
1540625875.7,286047002.7,N
1540625895.6,286047001.9,N
1540625915.4,286047002.0,N
1540625935.2,286047004.4,N
1540625955.1,286047001.8,N
1540625956.0,286047001.8,N
1540625975.8,286047004.0,N
1540625995.7,286047004.0,N
1540626015.5,286047004.1,N
1540626035.3,286047004.1,N
1540626055.2,286047003.7,N
1540626075.0,286047003.0,N
1540626075.9,286047003.0,N
1540626095.7,286047003.1,N
1540626115.6,286047003.7,N
1540626135.4,286047001.7,N
1540626155.3,286047002.4,N
1540626175.1,286047001.8,N
1540626176.0,286047001.8,N
1540626195.8,286047001.9,N
1540626215.7,286047001.7,N
1540626235.5,286047002.3,N
1540626255.3,286047003.2,N
1540626275.2,286047004.2,Y
1540626295.0,286046999.7,P
1540626295.9,286046999.7,N
1540626315.8,286047002.8,N
1540626335.6,286047001.9,N
1540626355.4,286047002.2,N
1540626375.3,286047000.6,N
1540626395.1,286046999.8,N
1540626415.9,286046998.2,N
1540626435.7,286047000.5,N
1540626455.5,286046998.7,N
1540626475.4,286046998.6,N
1540626495.2,286046998.3,N
1540626515.0,286046998.2,N
1540626515.9,286046998.2,N
1540626535.8,286046998.2,N
1540626555.6,286047001.0,N
1540626575.5,286047000.3,N
1540626595.3,286047000.0,N
1540626615.1,286047001.1,N
1540626635.9,286046998.8,N
1540626655.7,286047000.7,N
1540626675.5,286046998.5,N
1540626695.4,286047001.2,N
1540626715.2,286046998.7,N
1540626735.1,286046999.5,N
1540626736.0,286046999.5,N
1540626755.8,286046996.5,N
1540626775.6,286046997.9,N
1540626795.5,286046997.9,N
1540626815.3,286046997.3,N
1540626835.1,286046997.2,N
1540626855.9,286046996.7,N
1540626875.7,286046997.1,N
1540626895.6,286046997.3,N
1540626915.4,286046994.9,Y
1540626935.2,286046997.2,P
1540626955.1,286046999.1,N
1540626956.0,286046999.1,N
1540626975.8,286046999.6,N
1540626995.6,286046999.6,N
1540627015.5,286046999.1,N
1540627035.3,286046999.4,N
1540627055.2,286046997.1,Y
1540627075.9,286046999.4,P
1540627095.7,286046998.9,P
1540627115.6,286046997.7,P
1540627135.4,286046995.2,Y
1540627155.3,286046999.1,P
1540627175.1,286046998.8,P
1540627176.0,286046998.8,P
1540627195.8,286046997.9,Y
